BAW397 EBBR-EGLL

Flight info

Callsign BAW397
Flight time 0h 47m
Altitude 24000
Route HELEN L179 COA L608 LOGAN
Aircraft A21N/M-SDE2E3FGHIRWXY/LB1

Departure

Time 2026-05-01 13:42
Airport Brussels Airport (EBBR)

Arrival

Time 2026-05-01 14:29
Airport London Heathrow Airport (EGLL)
Time Latitude Longitude Altitude Speed Heading
2026-05-01 13:37 50.89066 4.47930 158 ft 0 kts 238°
2026-05-01 13:39 50.89063 4.47922 158 ft 4 kts 233°
2026-05-01 13:39 50.89029 4.47899 158 ft 5 kts 184°
2026-05-01 13:40 50.88988 4.47912 159 ft 6 kts 161°
2026-05-01 13:40 50.88954 4.47946 159 ft 5 kts 123°
2026-05-01 13:40 50.88942 4.48006 161 ft 6 kts 103°
2026-05-01 13:40 50.88930 4.48097 163 ft 10 kts 99°
2026-05-01 13:41 50.88940 4.48197 164 ft 8 kts 70°
2026-05-01 13:41 50.89004 4.48482 163 ft 69 kts 71°
2026-05-01 13:41 50.89275 4.49662 161 ft 152 kts 71°
2026-05-01 13:41 50.89711 4.51381 371 ft 178 kts 72°
2026-05-01 13:42 50.90157 4.53353 828 ft 203 kts 74°
2026-05-01 13:42 50.90699 4.55576 1296 ft 233 kts 68°
2026-05-01 13:42 50.91464 4.57990 1777 ft 253 kts 66°
2026-05-01 13:42 50.92294 4.60462 2261 ft 258 kts 60°
2026-05-01 13:43 50.93599 4.62386 2729 ft 267 kts 27°
2026-05-01 13:43 50.95431 4.62849 3219 ft 273 kts 352°
2026-05-01 13:43 50.97164 4.61696 3706 ft 276 kts 322°
2026-05-01 13:43 50.98380 4.59337 4205 ft 277 kts 297°
2026-05-01 13:44 50.99248 4.56625 4692 ft 278 kts 295°
2026-05-01 13:44 51.00131 4.53884 5181 ft 281 kts 296°
2026-05-01 13:44 51.01053 4.51122 5994 ft 288 kts 297°
2026-05-01 13:44 51.02009 4.48340 7137 ft 287 kts 297°
2026-05-01 13:45 51.02962 4.45608 8081 ft 291 kts 297°
2026-05-01 13:45 51.03951 4.42795 8975 ft 296 kts 297°
2026-05-01 13:45 51.04954 4.39953 9851 ft 301 kts 298°
2026-05-01 13:45 51.05983 4.37045 10695 ft 306 kts 298°
2026-05-01 13:46 51.07046 4.34035 11245 ft 322 kts 297°
2026-05-01 13:46 51.08156 4.30881 11694 ft 340 kts 297°
2026-05-01 13:46 51.09339 4.27517 12117 ft 358 kts 297°
2026-05-01 13:46 51.10588 4.23977 12504 ft 377 kts 297°
2026-05-01 13:47 51.11907 4.20273 13024 ft 390 kts 297°
2026-05-01 13:47 51.13233 4.16549 13754 ft 395 kts 297°
2026-05-01 13:47 51.14582 4.12734 14589 ft 398 kts 297°
2026-05-01 13:47 51.15954 4.08837 15348 ft 402 kts 297°
2026-05-01 13:48 51.17309 4.04965 16098 ft 406 kts 297°
2026-05-01 13:48 51.18678 4.01044 16811 ft 410 kts 297°
2026-05-01 13:48 51.20073 3.97044 17540 ft 413 kts 297°
2026-05-01 13:48 51.21465 3.93052 18217 ft 417 kts 297°
2026-05-01 13:49 51.22811 3.89001 18884 ft 420 kts 295°
2026-05-01 13:49 51.24025 3.84756 19525 ft 423 kts 291°
2026-05-01 13:49 51.25084 3.80346 20156 ft 426 kts 288°
2026-05-01 13:49 51.26066 3.75908 20759 ft 430 kts 287°
2026-05-01 13:50 51.27056 3.71355 21369 ft 434 kts 287°
2026-05-01 13:50 51.28077 3.66853 21949 ft 438 kts 289°
2026-05-01 13:50 51.29165 3.62298 22514 ft 441 kts 289°
2026-05-01 13:50 51.30253 3.57763 23069 ft 445 kts 289°
2026-05-01 13:51 51.31348 3.53158 23597 ft 448 kts 289°
2026-05-01 13:51 51.32452 3.48474 24056 ft 452 kts 289°
2026-05-01 13:51 51.33559 3.43744 24190 ft 453 kts 289°
2026-05-01 13:51 51.34657 3.39030 24194 ft 452 kts 289°
2026-05-01 13:52 51.35762 3.34264 24193 ft 452 kts 288°
2026-05-01 13:52 51.36866 3.29478 24196 ft 452 kts 288°
2026-05-01 13:52 51.37977 3.24647 24197 ft 452 kts 288°
2026-05-01 13:52 51.39070 3.19886 24196 ft 452 kts 288°
2026-05-01 13:53 51.40151 3.15168 24201 ft 452 kts 288°
2026-05-01 13:53 51.42310 3.05725 24198 ft 452 kts 288°
2026-05-01 13:53 51.43382 3.01023 24198 ft 452 kts 287°
2026-05-01 13:54 51.44457 2.96294 24198 ft 452 kts 287°
2026-05-01 13:54 51.45534 2.91548 24197 ft 452 kts 287°
2026-05-01 13:54 51.46603 2.86818 24195 ft 452 kts 287°
2026-05-01 13:54 51.47677 2.82065 24197 ft 452 kts 287°
2026-05-01 13:55 51.48745 2.77317 24194 ft 452 kts 287°
2026-05-01 13:55 51.49813 2.72565 24190 ft 452 kts 287°
2026-05-01 13:55 51.50882 2.67794 24195 ft 452 kts 287°
2026-05-01 13:55 51.51951 2.63008 24193 ft 452 kts 287°
2026-05-01 13:56 51.53009 2.58261 24193 ft 453 kts 287°
2026-05-01 13:56 51.54079 2.53444 24191 ft 453 kts 287°
2026-05-01 13:56 51.55141 2.48678 24189 ft 453 kts 287°
2026-05-01 13:56 51.56237 2.43865 24189 ft 453 kts 288°
2026-05-01 13:57 51.57306 2.39092 23964 ft 451 kts 285°
2026-05-01 13:57 51.57989 2.34180 23704 ft 445 kts 276°
2026-05-01 13:57 51.58430 2.29213 23440 ft 443 kts 274°
2026-05-01 13:57 51.58830 2.24255 23180 ft 441 kts 273°
2026-05-01 13:58 51.59236 2.19380 22918 ft 440 kts 274°
2026-05-01 13:58 51.59669 2.14440 22656 ft 438 kts 274°
2026-05-01 13:58 51.60116 2.09512 22393 ft 436 kts 274°
2026-05-01 13:58 51.60564 2.04663 22132 ft 435 kts 275°
2026-05-01 13:59 51.61020 1.99777 21868 ft 433 kts 275°
2026-05-01 13:59 51.61476 1.94897 21610 ft 432 kts 275°
2026-05-01 13:59 51.61933 1.90004 21343 ft 430 kts 275°
2026-05-01 13:59 51.62381 1.85206 21074 ft 428 kts 275°
2026-05-01 14:00 51.62825 1.80415 20820 ft 427 kts 275°
2026-05-01 14:00 51.63254 1.75771 20575 ft 425 kts 275°
2026-05-01 14:00 51.63684 1.71097 20315 ft 423 kts 275°
2026-05-01 14:00 51.64115 1.66377 20064 ft 421 kts 275°
2026-05-01 14:01 51.64536 1.61772 19815 ft 420 kts 275°
2026-05-01 14:01 51.64962 1.57086 19545 ft 418 kts 275°
2026-05-01 14:01 51.65376 1.52507 19292 ft 417 kts 275°
2026-05-01 14:01 51.65794 1.47856 19043 ft 415 kts 275°
2026-05-01 14:02 51.66206 1.43262 18781 ft 413 kts 275°
2026-05-01 14:02 51.66621 1.38604 18494 ft 411 kts 275°
2026-05-01 14:02 51.67023 1.34085 18179 ft 410 kts 274°
2026-05-01 14:02 51.67431 1.29464 17773 ft 407 kts 274°
2026-05-01 14:03 51.67822 1.25006 17320 ft 404 kts 274°
2026-05-01 14:03 51.68212 1.20530 16836 ft 400 kts 274°
2026-05-01 14:03 51.68594 1.16161 16648 ft 386 kts 274°
2026-05-01 14:03 51.68961 1.11949 16451 ft 374 kts 274°
2026-05-01 14:04 51.69310 1.07911 16226 ft 363 kts 273°
2026-05-01 14:04 51.69654 1.03913 16022 ft 351 kts 273°
2026-05-01 14:04 51.69979 1.00113 15827 ft 341 kts 273°
2026-05-01 14:04 51.70252 0.96374 15639 ft 329 kts 269°
2026-05-01 14:05 51.70257 0.92783 15459 ft 315 kts 261°
2026-05-01 14:05 51.70052 0.89339 15277 ft 304 kts 258°
2026-05-01 14:05 51.69805 0.86038 15010 ft 297 kts 258°
2026-05-01 14:05 51.69554 0.82738 14634 ft 295 kts 258°
2026-05-01 14:06 51.69313 0.79503 14273 ft 294 kts 258°
2026-05-01 14:06 51.69077 0.76263 13877 ft 293 kts 259°
2026-05-01 14:06 51.68845 0.73017 13491 ft 291 kts 259°
2026-05-01 14:06 51.68613 0.69772 13127 ft 290 kts 259°
2026-05-01 14:07 51.68386 0.66569 12766 ft 288 kts 259°
2026-05-01 14:07 51.68158 0.63370 12412 ft 286 kts 259°
2026-05-01 14:07 51.67931 0.60215 12033 ft 285 kts 259°
2026-05-01 14:08 51.67479 0.53967 11341 ft 281 kts 259°
2026-05-01 14:08 51.67251 0.50851 10989 ft 279 kts 259°
2026-05-01 14:08 51.67027 0.47765 10649 ft 277 kts 259°
2026-05-01 14:08 51.66805 0.44737 10314 ft 275 kts 259°
2026-05-01 14:09 51.66582 0.41697 9931 ft 273 kts 259°
2026-05-01 14:09 51.66357 0.38645 9555 ft 272 kts 259°
2026-05-01 14:09 51.66135 0.35650 9190 ft 270 kts 259°
2026-05-01 14:09 51.65913 0.32663 8828 ft 269 kts 259°
2026-05-01 14:10 51.65761 0.29673 8470 ft 268 kts 263°
2026-05-01 14:10 51.65688 0.26667 8210 ft 264 kts 264°
2026-05-01 14:10 51.65598 0.23754 8160 ft 265 kts 263°
2026-05-01 14:10 51.65598 0.20763 8143 ft 268 kts 269°
2026-05-01 14:11 51.65737 0.17791 8179 ft 265 kts 271°
2026-05-01 14:11 51.66067 0.11924 8149 ft 263 kts 271°
2026-05-01 14:11 51.66236 0.09010 8144 ft 263 kts 271°
2026-05-01 14:12 51.66409 0.06086 8150 ft 263 kts 271°
2026-05-01 14:12 51.66582 0.03153 8154 ft 263 kts 271°
2026-05-01 14:12 51.66755 0.00232 8176 ft 262 kts 271°
2026-05-01 14:12 51.66927 -0.02624 8136 ft 247 kts 271°
2026-05-01 14:13 51.67095 -0.05352 8130 ft 246 kts 271°
2026-05-01 14:13 51.67207 -0.07191 8136 ft 247 kts 271°
2026-05-01 14:13 51.67427 -0.10855 8144 ft 246 kts 270°
2026-05-01 14:13 51.67447 -0.13586 8153 ft 244 kts 263°
2026-05-01 14:14 51.67342 -0.16296 8173 ft 244 kts 262°
2026-05-01 14:14 51.67213 -0.19028 8159 ft 243 kts 261°
2026-05-01 14:14 51.67080 -0.21741 8141 ft 243 kts 261°
2026-05-01 14:14 51.66946 -0.24458 8144 ft 244 kts 261°
2026-05-01 14:15 51.66813 -0.27165 8149 ft 244 kts 261°
2026-05-01 14:15 51.66679 -0.29878 8152 ft 244 kts 261°
2026-05-01 14:15 51.66547 -0.32585 8151 ft 244 kts 261°
2026-05-01 14:15 51.66413 -0.35314 8155 ft 244 kts 261°
2026-05-01 14:16 51.66277 -0.38030 8152 ft 244 kts 261°
2026-05-01 14:16 51.66140 -0.40735 8148 ft 244 kts 261°
2026-05-01 14:16 51.66000 -0.43481 8147 ft 244 kts 261°
2026-05-01 14:16 51.65861 -0.46168 8150 ft 245 kts 261°
2026-05-01 14:17 51.65720 -0.48892 8149 ft 244 kts 261°
2026-05-01 14:17 51.65580 -0.51615 8150 ft 244 kts 261°
2026-05-01 14:17 51.65441 -0.54355 8078 ft 244 kts 261°
2026-05-01 14:17 51.65302 -0.57081 8027 ft 243 kts 261°
2026-05-01 14:18 51.65164 -0.59765 8004 ft 243 kts 261°
2026-05-01 14:18 51.65014 -0.62489 7993 ft 242 kts 258°
2026-05-01 14:18 51.64612 -0.65088 7986 ft 240 kts 248°
2026-05-01 14:18 51.64253 -0.66786 7983 ft 239 kts 246°
2026-05-01 14:19 51.63513 -0.70088 7825 ft 235 kts 246°
2026-05-01 14:19 51.62945 -0.72584 7456 ft 237 kts 246°
2026-05-01 14:19 51.62385 -0.75035 7122 ft 237 kts 246°
2026-05-01 14:19 51.61818 -0.77506 6808 ft 236 kts 246°
2026-05-01 14:20 51.61257 -0.79953 6510 ft 234 kts 246°
2026-05-01 14:20 51.59999 -0.84714 5861 ft 228 kts 227°
2026-05-01 14:20 51.58744 -0.86124 5582 ft 220 kts 195°
2026-05-01 14:21 51.57256 -0.86463 5455 ft 211 kts 183°
2026-05-01 14:21 51.55803 -0.86535 5218 ft 208 kts 181°
2026-05-01 14:21 51.54367 -0.86562 4910 ft 207 kts 181°
2026-05-01 14:22 51.51639 -0.86601 4599 ft 185 kts 181°
2026-05-01 14:22 51.50381 -0.86616 4411 ft 176 kts 180°
2026-05-01 14:22 51.49237 -0.86186 4187 ft 169 kts 152°
2026-05-01 14:22 51.48468 -0.84838 3982 ft 165 kts 122°
2026-05-01 14:23 51.48031 -0.83189 3825 ft 153 kts 113°
2026-05-01 14:23 51.47781 -0.81582 3576 ft 147 kts 104°
2026-05-01 14:23 51.47664 -0.79987 3252 ft 145 kts 98°
2026-05-01 14:23 51.47651 -0.78373 3000 ft 143 kts 93°
2026-05-01 14:24 51.47672 -0.76772 2991 ft 146 kts 93°
2026-05-01 14:24 51.47692 -0.75135 2983 ft 146 kts 93°
2026-05-01 14:24 51.47704 -0.73512 2972 ft 146 kts 94°
2026-05-01 14:24 51.47711 -0.71907 2819 ft 145 kts 94°
2026-05-01 14:25 51.47714 -0.70283 2636 ft 144 kts 94°
2026-05-01 14:25 51.47715 -0.68672 2446 ft 144 kts 94°
2026-05-01 14:25 51.47716 -0.67063 2255 ft 144 kts 94°
2026-05-01 14:25 51.47716 -0.65478 2067 ft 144 kts 94°
2026-05-01 14:26 51.47717 -0.63869 1880 ft 144 kts 94°
2026-05-01 14:26 51.47722 -0.60681 1518 ft 144 kts 94°
2026-05-01 14:26 51.47725 -0.59079 1337 ft 143 kts 94°
2026-05-01 14:27 51.47728 -0.57480 1153 ft 142 kts 94°
2026-05-01 14:27 51.47732 -0.55912 972 ft 142 kts 94°
2026-05-01 14:27 51.47736 -0.54320 784 ft 141 kts 94°
2026-05-01 14:28 51.47745 -0.51184 429 ft 140 kts 94°
2026-05-01 14:28 51.47750 -0.49639 249 ft 138 kts 94°
2026-05-01 14:28 51.47754 -0.48089 92 ft 135 kts 93°
2026-05-01 14:28 51.47749 -0.46877 88 ft 74 kts 88°
2026-05-01 14:29 51.47753 -0.46370 86 ft 25 kts 89°
2026-05-01 14:29 51.47733 -0.46191 84 ft 15 kts 124°
2026-05-01 14:30 51.47604 -0.46095 84 ft 7 kts 223°
2026-05-01 14:30 51.47592 -0.46194 83 ft 10 kts 271°
2026-05-01 14:30 51.47593 -0.46304 83 ft 10 kts 270°
2026-05-01 14:31 51.47591 -0.46522 85 ft 9 kts 268°
2026-05-01 14:31 51.47590 -0.46636 85 ft 10 kts 268°
2026-05-01 14:31 51.47588 -0.46760 85 ft 11 kts 268°
2026-05-01 14:31 51.47584 -0.46893 85 ft 12 kts 266°
2026-05-01 14:32 51.47580 -0.47033 85 ft 13 kts 266°
2026-05-01 14:32 51.47575 -0.47183 86 ft 13 kts 267°
2026-05-01 14:32 51.47575 -0.47331 86 ft 13 kts 269°
2026-05-01 14:32 51.47576 -0.47480 86 ft 13 kts 271°
2026-05-01 14:33 51.47578 -0.47638 85 ft 15 kts 270°
2026-05-01 14:33 51.47578 -0.47810 85 ft 15 kts 269°
2026-05-01 14:33 51.47575 -0.47988 83 ft 16 kts 267°
2026-05-01 14:33 51.47572 -0.48178 81 ft 17 kts 269°
2026-05-01 14:34 51.47572 -0.48357 81 ft 12 kts 270°
2026-05-01 14:34 51.47573 -0.48406 81 ft 0 kts 270°
2026-05-01 14:34 51.47568 -0.48441 82 ft 5 kts 241°
2026-05-01 14:35 51.47542 -0.48470 83 ft 0 kts 192°
2026-05-01 14:35 51.47540 -0.48470 83 ft 0 kts 192°
2026-05-01 14:35 51.47527 -0.48474 83 ft 11 kts 184°
2026-05-01 14:35 51.47429 -0.48477 81 ft 16 kts 179°
2026-05-01 14:36 51.47316 -0.48475 80 ft 16 kts 179°
2026-05-01 14:36 51.47204 -0.48473 80 ft 15 kts 179°
2026-05-01 14:36 51.47100 -0.48473 80 ft 14 kts 179°
2026-05-01 14:36 51.47010 -0.48472 80 ft 10 kts 179°
2026-05-01 14:37 51.46965 -0.48472 81 ft 2 kts 179°
2026-05-01 14:37 51.46962 -0.48472 81 ft 0 kts 179°
2026-05-01 14:37 51.46960 -0.48472 81 ft 0 kts 179°
2026-05-01 14:40 51.46946 -0.48472 81 ft 6 kts 179°
2026-05-01 14:40 51.46900 -0.48476 81 ft 6 kts 196°
2026-05-01 14:40 51.46877 -0.48520 80 ft 3 kts 258°
2026-05-01 14:41 51.46876 -0.48570 80 ft 4 kts 270°
2026-05-01 14:41 51.46876 -0.48630 80 ft 5 kts 269°
2026-05-01 14:41 51.46876 -0.48702 80 ft 6 kts 269°
2026-05-01 14:41 51.46875 -0.48773 82 ft 5 kts 268°
2026-05-01 14:42 51.46875 -0.48826 83 ft 3 kts 271°
2026-05-01 14:42 51.46876 -0.48839 83 ft 2 kts 285°
2026-05-01 14:42 51.46879 -0.48848 83 ft 1 kts 294°
2026-05-01 14:42 51.46886 -0.48858 83 ft 2 kts 334°
2026-05-01 14:43 51.46906 -0.48860 83 ft 3 kts
2026-05-01 14:43 51.46925 -0.48860 83 ft 1 kts 359°
2026-05-01 14:43 51.46928 -0.48860 83 ft 0 kts 359°